Theta_e
321 321 321 322 322 322 321 320 319 318 314 313 310 308 307 306 305 306 312 311 311 314 314 314 314 315 317 317 319 320 320 320 320 323 324 324 325 325 326 326 327 328 330 330 328 329 331 326 327 329 330 331 334 334
320 321 322 322 321 321 321 319 318 315 313 312 308 306 305 304 304 304 312 311 310 310 313 312 312 312 313 315 316 317 319 321 322 324 324 324 325 325 325 326 325 327 326 327 327 328 329 329 330 329 328 328 330 332
319 320 320 320 319 319 318 317 315 314 312 308 306 304 304 304 305 304 308 309 310 311 313 314 316 316 314 314 312 315 317 318 318 319 321 324 324 324 325 325 326 326 325 329 330 327 327 326 327 328 326 328 330 329
319 319 319 318 318 318 317 314 313 313 309 306 305 304 304 303 304 304 308 309 309 311 314 317 314 314 315 314 315 314 314 316 317 318 319 321 321 321 323 323 324 323 323 326 327 327 326 324 325 326 326 327 325 324
318 317 317 318 317 315 314 312 310 309 305 305 304 304 303 303 304 305 308 310 310 310 314 314 314 315 316 315 315 315 316 316 316 317 320 321 319 321 321 321 322 320 322 322 323 323 324 324 324 324 324 324 324 323
316 316 316 316 314 312 310 310 309 305 305 305 304 304 303 303 304 309 312 312 311 310 311 317 316 316 317 317 316 316 317 317 317 318 319 319 318 318 321 323 320 320 320 321 321 320 320 320 321 321 321 321 322 322
314 315 314 313 312 310 309 308 305 305 305 304 303 303 303 304 306 311 312 312 309 309 312 316 319 318 317 319 319 319 318 318 318 318 318 319 319 319 321 323 321 320 320 320 320 320 320 320 320 320 320 321 321 321
314 314 312 310 309 309 307 305 305 304 303 303 303 303 305 307 309 311 311 309 309 311 312 315 320 318 318 318 320 320 320 320 320 320 319 320 319 320 323 322 321 322 322 321 321 321 321 321 321 322 323 323 323 322
312 311 310 309 309 306 306 304 303 303 303 303 304 307 308 310 311 313 311 311 311 310 313 315 319 322 319 319 320 320 321 323 320 321 322 321 323 324 323 323 323 324 324 325 324 323 322 322 323 324 323 323 324 323
310 310 309 308 306 306 304 304 303 303 305 306 309 311 312 313 310 310 311 312 311 312 312 315 318 320 319 319 321 322 322 325 325 324 323 325 326 321 319 320 322 322 323 323 324 324 325 326 326 326 327 326 324 324
309 309 308 306 305 304 304 304 304 304 307 311 312 312 313 311 313 314 316 315 316 316 316 318 319 321 320 322 323 321 323 322 324 324 323 325 326 320 318 318 319 319 320 323 323 324 324 325 327 327 327 327 328 326
308 308 306 306 305 304 303 303 304 308 309 309 309 310 311 313 315 317 318 318 319 320 320 320 320 320 321 320 320 318 320 322 324 318 321 322 323 319 318 318 319 320 321 322 323 324 324 325 327 327 327 328 328 329
308 306 306 305 304 303 303 304 304 303 306 310 311 312 313 313 319 317 319 319 320 319 320 320 320 321 321 318 319 319 320 322 319 321 321 321 320 318 318 320 322 323 323 324 327 327 327 328 328 328 329 329 330 330
306 306 305 304 303 303 304 303 304 305 309 311 311 312 315 315 317 317 320 319 318 318 318 318 320 321 319 320 319 319 320 319 321 319 321 322 321 319 320 321 322 323 325 325 328 329 329 329 329 329 330 331 332 332
305 305 305 303 303 304 304 303 304 307 310 311 311 313 315 314 315 315 316 317 317 317 317 319 322 321 321 319 319 320 320 321 319 321 323 320 320 321 323 326 326 325 325 327 328 329 329 329 330 330 330 331 330 333
305 305 303 303 304 305 304 303 306 308 309 310 311 313 314 315 316 315 315 316 316 316 316 320 322 322 320 320 321 322 322 323 323 323 321 323 325 326 327 327 327 327 325 327 328 329 331 331 331 331 332 332 333 332
305 307 305 304 305 304 304 307 308 308 309 309 312 311 312 313 314 314 314 315 316 316 317 318 321 323 319 323 323 322 324 323 322 322 325 326 328 327 326 327 327 325 327 327 328 330 330 330 330 331 332 332 333 333
304 305 303 305 305 305 307 307 309 309 309 310 311 313 313 313 313 314 314 315 315 315 316 318 318 322 323 324 324 323 321 323 323 326 327 328 326 326 326 325 325 326 327 328 328 330 330 329 330 329 330 332 332 333
306 307 304 304 306 307 309 309 309 310 312 313 313 313 313 313 313 313 314 314 315 315 315 316 319 322 324 322 321 320 323 322 326 325 327 327 325 325 325 325 325 326 326 326 327 328 328 328 329 330 328 327 331 330
302 303 304 305 304 308 309 310 311 311 312 313 314 314 313 314 314 314 315 314 315 315 316 318 318 318 318 319 319 324 325 323 327 327 325 326 325 325 325 326 325 326 327 327 326 327 327 328 328 327 327 327 329 331
301 305 304 304 307 308 308 309 310 310 312 313 313 314 315 315 316 315 315 315 314 316 317 316 317 317 318 321 325 326 325 322 326 324 322 325 325 325 325 325 324 324 325 325 326 327 327 327 328 327 327 326 325 328
306 305 307 306 307 307 308 309 310 311 312 313 314 315 316 317 317 317 316 317 316 318 321 321 322 323 324 325 325 324 321 322 324 322 321 324 325 321 323 324 325 324 324 323 323 324 325 327 328 327 325 325 325 326
304 305 308 309 308 308 307 310 311 312 314 315 316 318 317 319 318 319 320 320 321 320 321 322 324 324 325 325 321 320 321 320 323 323 321 321 322 321 319 320 319 320 322 322 322 323 323 323 323 324 325 325 325 325
305 307 309 309 309 309 311 312 312 313 314 316 318 319 318 319 320 320 322 321 319 318 319 321 322 325 323 320 318 320 323 322 319 319 320 319 319 319 320 320 320 320 320 321 320 321 321 319 318 318 319 318 318 318
306 306 308 306 310 311 312 313 314 314 316 317 318 318 316 318 320 320 319 319 318 316 318 321 323 322 321 322 321 322 320 319 318 318 319 320 319 318 318 318 318 317 316 316 316 317 318 318 317 316 315 314 314 313
309 307 308 310 310 311 313 314 315 316 317 318 318 318 317 317 318 318 319 316 316 316 316 319 320 319 321 319 320 321 319 320 317 317 317 318 318 318 318 318 317 317 316 315 315 314 314 315 315 315 314 313 313 313
308 309 309 309 311 311 313 313 314 316 315 316 318 318 318 318 319 317 317 317 315 317 317 318 318 319 322 320 320 319 318 317 317 317 317 316 317 317 317 317 318 318 316 315 313 313 312 312 311 311 310 310 309 309
308 308 310 310 311 312 314 315 316 316 319 317 317 317 317 318 318 316 315 312 316 317 317 318 319 316 317 318 319 318 318 318 318 318 316 314 313 316 317 317 316 315 314 312 311 310 310 309 309 309 309 309 309 309
308 309 310 311 311 313 314 314 315 317 317 316 316 317 316 315 315 315 314 315 315 316 317 319 318 316 317 318 320 320 319 318 316 313 313 312 314 315 315 316 315 313 311 309 307 307 308 309 310 310 310 310 309 308
310 310 310 311 311 312 313 314 315 315 314 314 314 314 314 315 315 314 315 315 316 317 316 317 317 316 319 320 319 319 317 314 313 311 311 312 312 313 314 314 313 312 311 311 310 309 309 310 309 309 308 307 307 307
310 310 310 311 312 312 312 313 313 312 312 312 313 313 314 315 315 315 315 314 317 318 314 314 313 317 319 320 319 318 315 313 312 310 311 311 311 311 311 312 311 311 310 309 308 308 308 308 308 307 307 307 306 306
310 311 311 312 312 312 312 312 312 312 313 314 316 317 317 316 317 315 315 318 320 321 315 311 314 315 316 317 316 314 313 313 311 311 311 310 310 310 309 309 309 309 310 309 308 308 307 307 307 306 306 306 306 306
310 311 312 312 312 313 314 315 316 317 318 316 315 314 315 316 318 318 320 320 319 311 310 311 312 313 314 314 313 313 312 309 307 306 306 306 307 308 309 308 308 308 308 307 307 307 307 307 306 306 306 306 306 306
Wind_Speed
21 21 21 20 20 18 18 16 14 13 10 12 12 12 13 13 10 4 4 6 3 9 20 16 14 12 10 10 8 6 8 14 9 10 10 11 11 13 14 15 17 15 13 13 13 20 26 18 21 19 1 3 2 2
19 18 17 16 16 15 13 14 12 8 9 10 10 11 11 11 11 7 2 7 8 9 13 15 18 19 17 16 14 12 13 9 7 7 4 6 8 7 10 12 8 14 16 15 16 9 9 13 11 1 7 5 5 4
16 14 13 12 12 13 12 11 7 7 9 8 8 9 10 11 11 9 6 8 11 15 21 14 7 6 7 12 16 16 12 10 8 9 12 8 8 8 9 9 12 14 6 10 13 15 16 11 17 8 8 8 5 7
10 10 10 11 11 11 8 5 6 9 8 7 8 10 11 11 11 11 6 7 7 10 7 2 1 4 7 9 10 13 19 10 10 10 14 8 10 7 10 12 12 13 9 12 12 20 28 26 17 14 9 6 8 14
8 9 9 9 6 3 5 7 7 6 6 8 9 11 12 12 10 7 5 6 5 4 8 15 16 6 4 5 13 11 11 13 16 14 10 9 15 9 13 12 13 20 16 13 15 16 17 14 21 16 14 18 17 20
8 9 7 4 3 5 4 6 6 6 8 10 11 12 12 9 5 4 5 2 2 4 6 4 6 4 4 4 6 11 12 13 15 15 11 14 19 13 8 12 20 21 19 20 22 26 28 29 22 23 25 26 25 24
7 6 4 4 5 5 5 5 6 8 9 11 12 11 8 4 3 5 2 3 2 5 3 7 3 6 4 6 7 10 12 13 16 18 19 19 19 11 11 16 28 26 25 26 26 27 26 26 26 27 27 27 28 28
7 5 5 4 5 4 4 5 7 8 10 10 9 6 1 2 6 1 2 6 4 5 4 4 3 2 3 6 4 10 13 13 13 17 18 12 13 10 7 17 25 25 23 17 16 16 20 19 18 21 23 23 25 27
7 6 5 5 4 3 4 5 7 9 9 7 1 3 6 1 3 4 6 6 5 4 4 4 4 2 7 11 10 7 8 4 11 7 14 8 9 8 10 11 14 17 14 17 18 18 22 23 25 27 22 26 21 23
7 6 6 5 3 3 3 5 7 7 3 3 4 2 3 2 5 7 2 3 3 3 4 6 7 6 8 8 3 8 3 3 3 2 3 5 11 12 16 13 15 21 23 21 21 24 24 24 22 24 24 23 23 23
8 7 6 5 3 3 3 4 6 4 5 1 2 2 3 4 2 4 3 4 4 4 6 7 9 7 8 5 3 4 4 3 3 4 5 4 3 8 23 33 35 33 25 26 27 27 26 26 25 24 23 24 22 24
7 7 6 3 3 3 4 4 2 4 3 4 4 4 2 4 5 5 3 3 5 2 3 6 9 8 4 3 3 4 3 2 2 5 2 3 4 20 25 30 37 32 21 21 24 29 29 27 25 24 24 23 23 21
9 7 5 4 3 4 4 5 4 3 2 1 2 3 3 4 3 5 3 3 2 2 2 8 7 6 2 3 2 2 2 3 6 2 3 5 13 28 27 29 31 24 21 20 19 19 23 25 24 22 21 20 22 23
9 7 5 4 3 3 3 3 1 2 2 3 4 2 5 4 5 3 2 1 3 4 12 11 6 1 2 1 1 3 1 3 2 2 4 8 19 34 39 32 27 25 23 20 19 18 18 18 17 17 17 18 16 18
8 6 5 4 3 3 2 1 0 4 2 3 4 4 7 8 7 5 4 5 6 9 11 12 4 2 3 2 1 3 2 2 3 4 6 24 33 35 35 28 19 18 18 18 17 16 14 14 14 13 13 14 14 14
7 5 6 3 3 3 2 2 2 2 3 4 6 7 8 7 4 2 3 6 8 8 12 4 1 1 1 2 3 3 2 3 4 5 25 29 30 32 28 21 18 16 18 18 17 14 13 11 11 11 10 8 9 10
7 4 4 4 3 2 3 4 2 4 4 4 7 10 10 9 7 7 7 7 9 7 4 4 4 1 3 3 2 2 3 8 20 23 26 26 25 25 22 20 19 16 18 14 10 10 6 5 3 5 6 6 8 9
6 5 6 4 2 2 3 3 3 4 6 9 10 7 5 6 8 8 7 8 8 6 7 2 4 3 3 4 4 6 11 16 26 23 24 21 21 20 21 26 18 13 17 14 12 13 12 13 11 10 11 12 7 8
9 8 8 5 5 4 3 3 5 5 10 8 8 8 8 8 7 9 8 8 9 6 6 6 4 3 3 5 12 18 19 25 23 26 19 20 21 20 23 25 16 17 17 18 15 15 14 14 14 12 13 17 13 3
9 9 9 6 2 2 3 4 5 5 6 4 9 7 9 9 6 10 11 9 10 9 5 4 6 8 12 15 16 18 18 18 16 19 19 21 21 19 16 20 21 15 16 14 17 15 13 15 15 13 13 19 29 22
6 6 8 4 3 5 4 4 5 7 7 9 6 9 6 7 6 10 13 10 12 13 11 14 14 12 10 13 14 14 13 11 10 13 13 14 22 22 18 22 29 25 19 18 18 17 17 20 16 14 17 19 21 31
6 8 6 5 3 3 6 7 6 5 7 10 7 7 7 5 6 5 12 14 11 6 5 7 12 13 13 14 13 7 5 6 6 10 16 16 21 29 27 25 21 27 33 35 28 22 19 18 17 15 17 19 20 24
5 8 4 6 4 4 6 5 4 4 4 4 8 4 3 2 3 4 4 4 2 6 8 8 10 11 12 6 3 5 7 7 6 8 13 14 14 19 25 25 32 31 28 29 31 32 34 31 27 25 25 21 23 26
9 5 4 5 8 5 5 6 7 5 6 4 2 2 4 3 3 4 0 3 3 9 8 6 8 7 5 7 7 5 3 4 7 8 6 11 12 15 17 16 18 18 19 21 23 25 27 30 30 30 30 32 33 33
5 5 5 6 6 4 5 4 8 7 3 2 2 2 3 3 2 2 2 3 5 9 9 6 5 4 5 3 2 2 7 7 10 8 9 13 10 10 13 15 17 17 17 18 19 19 19 19 20 21 22 26 26 25
4 7 6 7 5 6 5 2 4 5 1 3 2 2 1 2 2 2 1 7 10 10 6 3 6 3 2 4 1 2 5 5 5 10 11 9 13 12 12 13 15 16 16 15 15 15 15 15 15 16 17 18 17 17
4 7 8 9 4 6 5 7 9 2 2 3 3 2 3 2 4 4 2 5 10 6 7 5 4 1 2 4 5 5 6 6 6 6 7 9 10 9 9 10 9 13 12 13 13 13 13 13 13 14 15 15 16 16
5 3 7 12 10 7 4 3 3 2 3 3 2 1 2 2 2 4 6 13 6 3 4 5 9 2 2 1 4 5 4 3 4 2 6 9 9 8 7 8 9 10 8 9 12 12 12 12 13 13 13 14 14 13
6 7 7 7 7 6 5 3 2 1 1 2 2 2 2 3 5 6 14 5 5 3 5 8 15 4 3 3 3 1 2 1 5 6 5 6 7 8 7 7 7 8 10 13 18 15 13 12 12 12 11 11 11 12
7 10 6 5 5 4 5 4 1 0 2 4 6 9 10 5 12 10 11 8 8 8 7 17 17 4 3 8 7 4 3 6 7 7 6 7 6 6 6 6 6 7 7 8 8 11 13 11 11 11 11 10 10 10
2 6 5 4 6 9 5 3 5 8 10 10 8 9 9 5 4 6 10 11 4 1 4 8 6 5 7 7 11 6 6 5 6 7 7 6 6 6 6 5 5 5 6 7 8 8 8 8 9 10 10 11 11 11
5 6 4 3 6 5 3 7 8 7 7 7 3 2 3 4 3 7 9 6 5 4 2 4 9 6 4 4 6 9 10 6 6 6 6 6 6 6 6 5 5 5 5 6 6 7 8 8 8 8 9 10 10 10
7 6 5 5 4 2 1 3 3 1 1 1 2 4 7 8 6 8 6 3 1 1 5 6 7 8 9 9 9 9 8 4 5 2 2 3 5 9 6 5 6 6 6 6 6 7 8 8 8 8 8 9 9 9
Wind_Direction
287 288 288 288 291 292 295 298 299 302 311 322 324 329 332 337 348 24 280 316 320 284 286 286 277 274 274 245 271 34 285 214 263 244 260 258 252 254 257 255 260 248 230 254 248 258 262 269 258 239 204 60 26 340
289 288 286 287 289 291 294 297 292 293 309 318 321 331 335 338 343 10 333 317 311 275 270 288 276 265 255 262 280 285 282 303 329 304 286 291 273 274 267 271 229 247 257 273 271 269 20 328 318 32 308 293 269 302
288 284 284 285 288 292 289 287 275 288 310 309 319 327 333 332 334 340 295 306 315 285 291 254 261 257 251 256 238 259 262 276 272 288 304 292 299 302 283 267 276 291 301 283 328 269 259 194 297 254 269 266 272 294
288 285 285 284 284 285 287 276 288 293 292 304 316 322 325 326 317 323 300 296 303 300 285 108 262 259 283 250 239 233 250 269 271 270 272 265 272 310 292 313 299 286 258 247 254 279 290 273 249 255 278 244 280 284
287 287 292 289 274 280 304 297 286 278 290 305 309 315 318 323 320 327 311 302 288 285 318 307 291 264 237 249 232 234 241 244 252 260 249 253 271 296 271 272 265 258 265 265 270 265 267 279 288 289 284 280 276 275
276 281 283 263 270 307 286 282 282 288 301 306 310 312 312 317 343 19 195 256 304 280 298 290 352 231 223 240 231 229 236 239 243 254 261 262 264 265 274 275 282 288 290 286 276 273 274 273 275 266 272 271 267 268
262 256 248 274 282 268 272 279 289 301 307 310 312 311 306 299 279 278 351 231 239 301 270 287 231 154 237 248 235 245 236 237 247 259 257 266 273 233 261 261 271 279 275 272 270 264 270 267 264 267 267 265 262 263
237 238 265 250 244 255 274 295 309 313 314 314 313 313 320 109 94 105 284 261 276 294 275 275 298 32 290 283 210 245 242 240 242 249 260 257 260 262 265 264 264 272 264 277 284 275 272 276 276 272 275 264 264 253
229 231 221 226 233 250 294 310 325 328 325 321 322 110 106 111 247 234 270 297 245 233 291 275 297 324 328 305 311 262 200 247 243 243 235 259 242 222 253 314 342 320 312 308 302 271 266 274 284 275 254 260 258 252
210 206 215 214 228 276 297 326 339 342 358 81 119 240 246 204 243 274 269 212 230 213 234 257 272 290 316 301 308 321 199 253 268 313 306 238 250 19 357 341 336 320 300 294 282 274 279 278 272 274 279 255 252 252
202 207 207 209 249 268 301 327 349 26 69 51 236 284 306 285 265 242 221 217 205 223 215 259 283 310 315 318 313 332 320 300 287 26 342 319 304 327 316 317 320 313 294 275 266 266 267 273 276 274 270 272 269 253
201 203 202 227 244 276 298 313 1 61 256 236 258 260 244 238 237 252 216 214 229 260 228 285 320 316 326 341 355 329 292 272 284 1 287 269 263 293 302 306 315 312 306 286 269 262 261 269 271 267 269 262 260 259
201 199 208 231 240 270 289 303 301 249 176 284 285 255 232 238 262 225 251 205 191 243 272 285 296 4 81 29 280 277 283 267 333 277 276 251 281 302 307 315 320 317 310 298 291 268 262 265 267 262 260 253 249 249
203 205 222 238 253 267 294 321 310 172 105 236 210 264 236 214 227 230 343 309 331 256 284 317 336 136 167 208 303 265 264 292 279 299 249 290 311 310 311 309 313 310 308 303 294 286 275 273 269 264 258 255 252 247
206 214 230 234 234 235 299 284 285 140 255 256 246 239 222 239 218 235 260 266 341 299 306 319 354 307 61 320 261 295 282 278 236 249 263 295 300 301 305 320 330 323 316 309 307 303 292 285 284 270 269 263 247 240
207 220 240 212 215 252 258 169 74 189 240 249 243 250 244 256 244 198 283 303 300 315 325 286 18 3 230 257 234 243 267 256 280 284 301 315 321 325 330 333 332 325 327 315 309 299 291 283 277 276 284 265 230 221
193 203 239 205 220 218 174 155 219 223 248 238 241 235 269 286 274 220 235 265 281 303 321 7 322 356 303 249 226 217 275 298 301 314 320 329 333 340 346 349 349 346 344 334 342 359 4 27 13 345 306 274 245 233
167 247 203 195 157 119 171 206 238 236 242 242 251 257 226 258 281 273 247 253 274 294 298 280 299 269 264 312 333 305 305 340 332 330 332 345 356 0 3 356 354 6 22 24 16 40 75 54 37 20 11 357 315 251
180 214 187 179 160 173 215 225 227 259 241 258 250 264 261 267 264 267 259 250 249 265 289 274 248 237 258 288 296 318 349 340 329 335 353 2 8 6 7 8 19 28 33 30 46 46 40 34 31 37 32 28 24 143
202 205 187 183 172 231 249 224 223 250 266 287 269 257 270 270 290 281 254 228 229 225 253 241 264 290 295 299 326 335 327 331 333 347 1 9 15 13 16 20 29 21 43 44 45 44 45 31 21 37 46 40 44 81
182 203 195 187 224 237 267 248 235 244 265 263 242 250 274 286 267 266 275 239 226 243 253 264 277 288 320 319 315 320 331 351 10 8 0 13 29 34 46 50 47 47 53 56 56 54 54 60 63 71 74 65 57 59
193 194 182 203 251 244 257 234 252 282 264 262 274 258 268 240 240 243 253 244 224 245 360 338 333 328 316 319 322 331 4 43 55 44 34 41 43 47 48 41 56 55 52 56 54 60 65 72 76 85 82 82 81 79
163 175 214 209 227 234 261 236 241 242 251 245 237 233 246 237 257 281 248 216 71 357 340 326 308 302 298 309 46 63 65 55 47 41 32 39 68 53 52 58 51 52 56 51 49 50 54 62 64 80 87 89 91 86
174 193 220 213 208 247 214 223 214 236 253 251 285 286 325 304 298 241 233 103 28 358 342 326 340 340 82 100 103 65 29 8 35 38 57 47 39 60 55 52 51 50 48 53 58 61 60 60 70 76 79 81 78 81
195 223 210 240 222 224 225 235 210 224 234 210 264 77 274 291 279 35 11 18 342 345 350 2 359 37 102 59 107 27 29 51 33 30 25 46 53 36 58 54 54 50 49 52 54 60 63 65 65 65 65 66 72 73
215 211 199 205 215 198 242 229 229 211 319 349 263 208 127 358 285 285 42 11 342 322 319 317 347 39 37 110 157 39 75 18 53 57 44 43 40 39 46 54 56 48 47 51 54 58 61 63 63 63 63 64 67 69
231 215 206 221 249 229 235 235 250 177 87 245 242 194 176 227 205 203 284 322 324 274 256 233 250 187 12 65 90 93 80 57 60 66 59 52 47 45 48 51 52 40 48 47 48 49 54 59 63 65 67 68 67 67
251 278 237 193 210 202 248 253 229 199 175 213 268 348 329 335 345 340 316 315 314 213 194 216 177 206 221 105 113 111 92 97 81 62 82 57 43 51 60 64 62 53 56 65 51 51 59 69 71 71 70 69 67 65
229 217 198 263 211 212 234 253 317 89 28 359 314 333 326 351 319 306 310 274 183 187 196 182 175 83 345 187 135 126 320 358 83 70 42 47 50 54 63 68 68 58 47 46 59 70 74 78 78 67 62 62 60 56
213 192 184 224 225 236 233 240 9 75 305 292 298 297 297 334 322 303 163 145 113 98 92 151 169 238 254 177 165 151 29 45 43 54 67 66 66 64 69 71 65 55 51 51 49 46 55 61 59 59 62 62 56 48
138 197 206 235 229 229 249 261 270 278 277 278 283 292 306 328 106 144 158 171 173 106 145 182 205 198 194 201 169 171 117 77 70 82 84 78 77 77 75 70 63 59 59 61 61 61 63 65 60 55 54 52 47 46
197 211 212 239 226 216 262 275 271 270 272 278 304 242 181 185 205 159 166 211 234 233 189 169 172 157 140 132 121 100 112 110 96 90 81 78 76 71 66 65 64 68 72 71 67 62 59 57 55 51 51 44 41 40
213 210 239 272 252 222 196 277 259 292 330 338 255 221 197 191 170 175 179 198 319 91 145 141 144 140 133 138 138 133 141 140 151 174 149 135 135 111 86 74 73 76 77 75 69 65 65 60 52 49 45 37 34 31